CW9871 Weather Reports


time (UTC)temp
C
wind
direction
speed
KPH
gust
KPH
rain 1hr
cm
rain 24hr
cm
rain mn
cm
humidity
%
barometer
mb
20260504060108 10 73 6.4 16.1 0.00 0.00 0.00 57 1007.8
20260504044619 11 52 9.7 19.3 0.00 0.00 0.00 53 1008.2
20260504043057 11 56 8.0 17.7 0.00 0.00 0.00 53 1008.1
20260504041556 12 58 8.0 16.1 0.00 0.00 0.00 53 1008.1
20260504040113 12 62 8.0 12.9 0.00 0.00 0.00 52 1008.1
20260504034607 12 70 6.4 14.5 0.00 0.00 0.00 52 1008.0
20260504033058 12 73 8.0 24.1 0.00 0.00 0.00 52 1008.1
20260504031555 11 58 8.0 16.1 0.00 0.00 0.00 54 1008.1
20260504030055 11 63 4.8 9.7 0.00 0.00 0.00 55 1008.2
20260504024555 11 65 3.2 9.7 0.00 0.00 0.00 56 1008.3
20260504023053 11 67 4.8 9.7 0.00 0.00 0.00 56 1008.5
20260504021553 11 79 6.4 12.9 0.00 0.00 0.00 56 1008.6
20260504020056 11 68 4.8 12.9 0.00 0.00 0.00 56 1008.6
20260504014555 11 82 6.4 12.9 0.00 0.00 0.00 59 1008.6
20260504013108 11 79 4.8 16.1 0.00 0.00 0.00 60 1008.7
20260504011556 11 70 4.8 14.5 0.00 0.00 0.00 62 1008.9
20260504010101 10 86 6.4 19.3 0.00 0.00 0.00 64 1008.8
20260504004608 10 104 9.7 25.7 0.00 0.00 0.00 65 1009.2
20260504003055 11 86 9.7 29.0 0.00 0.00 0.00 63 1009.2
20260504001605 11 103 9.7 24.1 0.00 0.00 0.00 60 1009.1
20260504000114 11 107 14.5 29.0 0.00 0.00 0.00 56 1008.9
20260503234554 12 86 25.7 43.5 0.00 0.00 0.00 53 1008.8
20260503233057 12 97 22.5 45.1 0.00 0.00 0.00 49 1008.6
20260503231558 13 75 12.9 32.2 0.00 0.00 0.00 46 1008.5
20260503224559 13 64 12.9 22.5 0.00 0.00 0.00 44 1008.1
20260503223101 13 77 12.9 30.6 0.00 0.00 0.00 43 1008.1
20260503221559 13 98 9.7 17.7 0.00 0.00 0.00 44 1008.4
20260503220122 13 86 9.7 25.7 0.00 0.00 0.00 43 1008.5
20260503214601 13 68 11.3 29.0 0.00 0.00 0.00 42 1008.6
20260503213103 13 58 12.9 25.7 0.00 0.00 0.00 41 1008.2
20260503211556 14 70 8.0 16.1 0.00 0.00 0.00 40 1008.1
20260503210110 14 96 11.3 24.1 0.00 0.00 0.00 39 1008.2
20260503204603 14 70 12.9 22.5 0.00 0.00 0.00 38 1008.5
20260503203059 13 79 12.9 22.5 0.00 0.00 0.00 40 1008.6
20260503201555 13 40 11.3 24.1 0.00 0.00 0.00 41 1008.8
20260503200101 13 75 17.7 29.0 0.00 0.00 0.00 40 1009.0
20260503194556 13 80 12.9 27.4 0.00 0.00 0.00 41 1009.3
20260503193056 13 70 19.3 30.6 0.00 0.00 0.00 39 1009.6
20260503191553 12 82 19.3 38.6 0.00 0.00 0.00 40 1009.8
20260503190054 12 153 12.9 24.1 0.00 0.00 0.00 38 1010.0
20260503184604 12 106 17.7 35.4 0.00 0.00 0.00 41 1010.1
20260503183056 12 103 16.1 25.7 0.00 0.00 0.00 43 1010.3
20260503181556 12 81 12.9 29.0 0.00 0.00 0.00 45 1010.4
20260503180106 12 111 11.3 25.7 0.00 0.00 0.00 44 1010.4
20260503174556 11 87 12.9 24.1 0.00 0.00 0.00 47 1010.5
20260503173108 11 96 11.3 24.1 0.00 0.00 0.00 49 1010.7
20260503171556 11 96 14.5 25.7 0.00 0.00 0.00 46 1010.8
20260503160114 11 144 8.0 20.9 0.00 0.00 0.00 47 1011.7
20260503110104 2 101 6.4 12.9 0.00 0.00 0.00 86 1013.2
20260503081553 1 0 0.0 3.2 0.00 0.00 0.00 84 1013.1
20260503071557 2 82 0.0 6.4 0.00 0.00 0.00 81 1013.0